{"data":{"norad_id":60310,"intl_designator":"2024-133K","name":"STARLINK-11200 [DTC]","alt_names":[],"object_type":"PAYLOAD","status":"ACTIVE","operator":null,"country":"US","launch_date":"2024-07-28","launch_site_code":"AFWTR","launch_vehicle":null,"mission":null,"orbit_class":"UNKNOWN","rcs_meters":null,"size_class":null,"mass_kg":null,"dimensions":null,"purposes":["comms"],"wikipedia_slug":null,"has_3d_model":false,"image_url":null,"decayed_at":null,"tle_current":{"epoch":"2026-05-25T03:04:44.197248Z","epoch_age_seconds":60081,"freshness":"FRESH","line1":"1 60310U 24133K   26145.12828932  .00001246  00000+0  15140-4 0  9993","line2":"2 60310  53.1591 129.1113 0001015  73.6507 286.4622 15.69707539105748","mean_motion":15.69707539,"eccentricity":0.0001015,"inclination_deg":53.1591,"raan_deg":129.1113,"arg_perigee_deg":73.6507,"mean_anomaly_deg":286.4622,"bstar":1.514e-5,"rev_number":10574,"period_min":91.736834042179,"perigee_km":359.04989898349,"apogee_km":360.41768675444,"semimajor_km":6737.870792869,"source":"CELESTRAK","updated_at":"2026-05-25T13:38:19.229917Z"}}}